Location: ?????
(30.4569°N, 47.8921°E)
Time: 20:41:15
(UTC+00:00)

Cosmos 2219 Rocket - Pass Details

Date: 07 June 2020
Orbit: 828 x 846 km, 71.0° (Epoch: 05 July)

Event Time Altitude Azimuth Distance (km) Brightness Sun altitude
Exits shadow 01:00:00 11° 244° (WSW) 2,329 3.8 -9.4°
Maximum altitude 01:04:14 26° 297° (WNW) 1,588 3.4 -8.6°
Drops below altitude 10° 01:08:49 10° 353° (N) 2,434 4.9 -7.8°
Sets 01:11:41 0° 6° (N) 3,371 5.9 -7.2°
